Find Starlink 33942

NORAD ID: 63974 Int'l Des: 2025-099 Owner: SPXS Country: US Constellation: starlink operational
LEOCIRCULAR

当前视图

正在加载3D地球...

关于 Starlink 33942

正在加载描述...

即将过境

Passes for default location (London). Set your location on the main map for personalized predictions.

高度历史

Loading altitude history...

两行轨道根数

1 63974U 25099Y 26148.98013860 .00020868 00000-0 76574-3 0 9996
2 63974 42.9971 79.4876 0001254 258.9282 101.1428 15.27577571 59651
Epoch: May 28, 2026 • Age: 26 hours

当前状态

高度 484.7 km
速度 7.63 km/s
星下点 33.01°N, 55.78°W
发射日期 May 13, 2025
运行时间 1 years
类型 internet

技术详情

分类 Payload
质量 575.00 kg
干质量 530.00 kg
总质量 575.00 kg
长度 0.30 m
直径 4.10 m
跨度 29.00 m
形状 Box + pan
制造商 SPXS
平台类型 Starlink V2MO
阶段状态 In Orbit
所有者/国家 SPXS/US

Most Searched